Miscellaneous Local Product
Issued by NWS North Platte, NE

Home | Current Version | Previous Version | Graphics & Text | Print | Product List | Glossary On
Versions: 1 2 3 4 5 6 7 8 9 10 11 12 13 14 15 16 17 18 19 20 21 22 23 24 25 26 27 28 29 30 31 32 33 34 35 36 37 38 39 40 41 42 43 44 45 46 47 48 49 50
000
AXUS43 KLBF 290210
MISLBF


WESTERN AND NORTH CENTRAL NEBRASKA HOURLY WEATHER ROUNDUP
NATIONAL WEATHER SERVICE NORTH PLATTE NE
900 PM CDT FRI AUG 28 2015

NOTE: "FAIR" INDICATES FEW OR NO CLOUDS BELOW 12,000 FEET WITH NO
SIGNIFICANT WEATHER AND/OR OBSTRUCTIONS TO VISIBILITY.

NOTE: STATIONS NOT REPORTING VARIABLES SUCH AS SKY/WEATHER OR
PRESSURE ARE PROVIDED BY THE NEBRASKA DEPARTMENT OF
ROADS...RAWS...AND APRS NETWORKS...AND ARE NOT UNDER
NATIONAL WEATHER SERVICE QUALITY CONTROL.

...OBSERVATIONS IN AND NEAR THE EASTERN PANHANDLE OF NEBRASKA...

CITY           SKY/WX    TMP DP  RH WIND       PRES   REMARKS
PINE RIDGE     CLEAR     69  56  62 E6        30.07R
CHADRON        CLEAR     72  55  55 SE5       30.05R
ALLIANCE       CLEAR     69  51  52 SE6       30.11R
SIDNEY         CLEAR     71  43  36 NE7       30.16R
CRESCENT LAKE    N/A     76  49  38 NE3         N/A
BIG SPRINGS      N/A     70  59  68 CALM        N/A
$$

...OBSERVATIONS IN NORTH CENTRAL NEBRASKA...

CITY           SKY/WX    TMP DP  RH WIND       PRES   REMARKS
VALENTINE      CLEAR     70  61  73 SE6       30.04R
THEDFORD       CLEAR     68  62  79 CALM      30.07R
AINSWORTH      CLEAR     67  64  91 CALM      30.04S
O`NEILL        CLEAR     68  65  91 E5        30.02R
ORD            CLEAR     65  62  90 CALM      30.00R
BROKEN BOW     CLEAR     66  62  87 N5        30.03R
SPRINGVIEW       N/A     66  62  88 CALM        N/A
SARGENT          N/A     68  63  84 CALM        N/A
CHAMBERS         N/A     66  62  86 CALM        N/A
EWING            N/A     66  61  84 CALM        N/A
$$

...OBSERVATIONS IN SOUTHWEST NEBRASKA AND FAR NORTHEAST COLORADO...

CITY           SKY/WX    TMP DP  RH WIND       PRES   REMARKS
WRAY           FAIR      74  50  42 NE7       30.10R
HOLYOKE        FAIR      73  55  53 E5        30.12R
IMPERIAL       CLEAR     73  59  61 NE3       30.08R
OGALLALA       CLEAR     73  55  51 CALM      30.08R
NORTH PLATTE   CLEAR     66  60  81 NE6       30.05R
MCCOOK         CLEAR     72  62  71 MISG      30.03R
LEXINGTON      CLEAR     68  63  83 NE6       30.03R
PAXTON           N/A     71  64  78 CALM        N/A
BRADY            N/A     69  61  76 CALM        N/A
CALLAWAY         N/A     67  62  83 N5          N/A
$$

...OBSERVATIONS IN CENTRAL LINCOLN COUNTY AREA...

CITY           SKY/WX    TMP DP  RH WIND       PRES   REMARKS
N.P. AIRPORT   CLEAR     66  60  81 NE6       30.05R
N.P. DOWNTOWN    N/A     74  63  67 CALM        N/A
$$

...SOME OBSERVATIONS FROM AROUND THE REGION...

CITY           SKY/WX    TMP DP  RH WIND       PRES   REMARKS
DENVER         PTCLDY    76  33  21 E5        30.23R
LARAMIE        CLEAR     68  38  33 CALM      30.35R
CHEYENNE       CLEAR     69  41  36 E7        30.27R
SCOTTSBLUFF    CLEAR     71  57  61 SE5       30.12R
RAPID CITY     CLEAR     73  60  63 CALM      30.04R
PIERRE         CLEAR     74  66  76 S9        29.96R
WINNER         FAIR      71  64  78 S6        30.01R
SIOUX FALLS    PTCLDY    62  58  86 E6        30.01R
OMAHA          CLOUDY    66  64  93 NW14      29.92R
GRAND ISLAND   CLEAR     67  61  81 N5        30.00R
KANSAS CITY    MOCLDY    73  67  81 S15       29.91R
WICHITA        LGT RAIN  77  65  66 E9        29.94R
HAYS           CLEAR     79  59  50 NE13      29.99R
LIBERAL        PTCLDY    81  55  41 S7        30.02R
GOODLAND       CLEAR     72  49  44 NE5       30.09R
$$



USA.gov is the U.S. government's official web portal to all federal, state and local government web resources and services.